Location: NJAA Observatory
(40.6819°N, 74.8979°W)
Time: 04:44:37
(UTC-05:00)

Cosmos 2237 Rocket - Visible Passes

Search period start: 29 November 2014 00:00
Search period end: 09 December 2014 00:00
Orbit: 837 x 848 km, 71.0° (Epoch: 28 November)

Date Brightness Start Highest point End Pass type
(mag) Time Alt. Az. Time Alt. Az. Time Alt. Az.
03 Dec 4.3 18:08:19 10° NNE 18:08:32 11° NNE 18:08:32 11° NNE visible
03 Dec 4.8 19:50:17 10° NNW 19:50:23 11° NNW 19:50:23 11° NNW visible
04 Dec 4.1 17:53:43 10° NNE 17:54:33 12° NNE 17:54:33 12° NNE visible
04 Dec 4.4 19:35:32 10° NNW 19:36:25 15° NNW 19:36:25 15° NNW visible
05 Dec 4.0 17:39:09 10° NNE 17:40:43 12° NE 17:40:43 12° NE visible
05 Dec 4.0 19:20:47 10° NNW 19:22:36 21° NNW 19:22:36 21° NNW visible
06 Dec 3.9 17:24:36 10° NNE 17:26:29 12° NE 17:27:04 11° NE visible
06 Dec 3.3 19:06:02 10° NNW 19:08:57 31° N 19:08:57 31° N visible
07 Dec 3.9 17:10:06 10° NNE 17:11:41 11° NE 17:13:15 10° ENE visible
07 Dec 2.5 18:51:17 10° NNW 18:55:35 50° N 18:55:35 50° N visible
07 Dec 5.0 20:36:55 10° WNW 20:37:30 12° WNW 20:37:30 12° WNW visible
08 Dec 2.1 18:36:32 10° NNW 18:42:07 62° ENE 18:42:42 59° E visible
08 Dec 4.7 20:22:01 10° WNW 20:24:40 17° W 20:24:40 17° W visible
